sat.trackr.live / text

‹ back to catalog

STARLINK-3248

NORAD 49748 · 2021-115AA

PAYLOAD ACTIVE UNKNOWN

§ Identity

Operator
Country
US
Launch date
2021-12-02
Launch site
AFETR
Launch vehicle
Mass (kg)
RCS (m²)

Purposes: comms

External: N2YO · Heavens-Above · Gunter

§ Orbital elements

Epoch: 2026-09-11T15:51:01.050912Z

Period
93.79 min
Inclination
53.1619°
Eccentricity
0.0000980
Mean motion
15.35398747 rev/d
Perigee alt
459.1 km
Apogee alt
460.4 km
Semi-major
6,837.9 km
B*
1.9812e-5
RAAN
28.8140°
Arg perigee
77.0532°
Mean anomaly
283.0580°
Rev number
26,368

§ Raw data

STARLINK-32481 49748U 21115AA  26254.66042883  .00000311  00000+0  19812-4 0  99972 49748  53.1619  28.8140 0000980  77.0532 283.0580 15.35398747263686

JSON: /api/v1/satellites/49748 · /tle

For live sub-satellite position, see the globe view (requires WebGL).

§ Visibility from observer

Set your observer location to see the next 7 days of passes ≥ 10°. The values pass through the URL so the page stays shareable.

No JS? Fill the form by hand. The geolocation button needs JavaScript.